| time (UTC) | temp F | wind direction | speed MPH | gust MPH | rain 1hr in | rain 24hr in | rain mn in | humidity % | barometer mb |
| 20260905190054 | 94 | 136 | 4.0 | 10.0 | 0.00 | 0.00 | 0.00 | 55 | 1012.9 |
| 20260905190014 | 94 | 175 | 4.0 | 9.0 | 0.00 | 0.00 | 0.00 | 56 | 1014.8 |
| 20260905184603 | 92 | 264 | 2.0 | 10.0 | 0.00 | 0.00 | 0.00 | 57 | 1013.1 |
| 20260905184512 | 92 | 276 | 2.0 | 10.0 | 0.00 | 0.00 | 0.00 | 59 | 1014.9 |
| 20260905183058 | 92 | 145 | 4.0 | 10.0 | 0.00 | 0.00 | 0.00 | 60 | 1013.2 |
| 20260905183009 | 92 | 115 | 4.0 | 10.0 | 0.00 | 0.00 | 0.00 | 60 | 1015.1 |
| 20260905181609 | 92 | 146 | 5.0 | 11.0 | 0.00 | 0.00 | 0.00 | 62 | 1013.4 |
| 20260905181508 | 92 | 132 | 5.0 | 10.0 | 0.00 | 0.00 | 0.00 | 62 | 1015.3 |
| 20260905180054 | 91 | 174 | 2.0 | 8.0 | 0.00 | 0.00 | 0.00 | 63 | 1013.6 |
| 20260905180002 | 91 | 152 | 2.0 | 8.0 | 0.00 | 0.00 | 0.00 | 64 | 1015.5 |
| 20260905174552 | 91 | 126 | 3.0 | 13.0 | 0.00 | 0.00 | 0.00 | 65 | 1013.8 |
| 20260905174502 | 91 | 156 | 3.0 | 13.0 | 0.00 | 0.00 | 0.00 | 65 | 1015.6 |
| 20260905173057 | 91 | 146 | 5.0 | 12.0 | 0.00 | 0.00 | 0.00 | 64 | 1014.0 |
| 20260905173001 | 91 | 140 | 4.0 | 12.0 | 0.00 | 0.00 | 0.00 | 65 | 1015.8 |
| 20260905171558 | 90 | 134 | 2.0 | 10.0 | 0.00 | 0.00 | 0.00 | 67 | 1015.9 |
| 20260905171554 | 90 | 121 | 2.0 | 7.0 | 0.00 | 0.00 | 0.00 | 66 | 1014.3 |
| 20260905170101 | 90 | 175 | 3.0 | 11.0 | 0.00 | 0.00 | 0.00 | 67 | 1016.0 |
| 20260905170053 | 90 | 230 | 3.0 | 11.0 | 0.00 | 0.00 | 0.00 | 67 | 1014.5 |
| 20260905164557 | 89 | 177 | 4.0 | 11.0 | 0.00 | 0.00 | 0.00 | 68 | 1014.5 |
| 20260905164554 | 89 | 172 | 3.0 | 9.0 | 0.00 | 0.00 | 0.00 | 69 | 1016.1 |
| 20260905163054 | 88 | 143 | 4.0 | 11.0 | 0.00 | 0.00 | 0.00 | 72 | 1014.7 |
| 20260905163050 | 88 | 142 | 4.0 | 11.0 | 0.00 | 0.00 | 0.00 | 72 | 1016.2 |
| 20260905161551 | 87 | 161 | 4.0 | 10.0 | 0.00 | 0.00 | 0.00 | 74 | 1014.7 |
| 20260905161547 | 87 | 180 | 3.0 | 10.0 | 0.00 | 0.00 | 0.00 | 75 | 1016.4 |
| 20260905160133 | 87 | 146 | 2.0 | 10.0 | 0.00 | 0.00 | 0.00 | 76 | 1014.6 |
| 20260905160114 | 87 | 167 | 1.0 | 7.0 | 0.00 | 0.00 | 0.00 | 76 | 1016.4 |
| 20260905154554 | 85 | 102 | 3.0 | 12.0 | 0.00 | 0.00 | 0.00 | 80 | 1014.6 |
| 20260905154548 | 85 | 121 | 2.0 | 10.0 | 0.00 | 0.00 | 0.00 | 80 | 1016.3 |
| 20260905153051 | 84 | 139 | 4.0 | 10.0 | 0.00 | 0.00 | 0.00 | 81 | 1014.6 |
| 20260905153041 | 84 | 139 | 4.0 | 7.0 | 0.00 | 0.00 | 0.00 | 81 | 1016.2 |
| 20260905151557 | 84 | 155 | 2.0 | 7.0 | 0.00 | 0.00 | 0.00 | 81 | 1014.6 |
| 20260905151541 | 84 | 136 | 3.0 | 7.0 | 0.00 | 0.00 | 0.00 | 81 | 1016.2 |
| 20260905150058 | 84 | 221 | 2.0 | 7.0 | 0.00 | 0.00 | 0.00 | 82 | 1014.6 |
| 20260905150038 | 84 | 137 | 1.0 | 7.0 | 0.00 | 0.00 | 0.00 | 83 | 1016.2 |
| 20260905144557 | 82 | 0 | 4.0 | 8.0 | 0.00 | 0.00 | 0.00 | 85 | 1014.6 |
| 20260905144536 | 82 | 138 | 3.0 | 8.0 | 0.00 | 0.00 | 0.00 | 85 | 1016.2 |
| 20260905143052 | 82 | 162 | 1.0 | 6.0 | 0.00 | 0.00 | 0.00 | 84 | 1014.5 |
| 20260905143035 | 82 | 162 | 1.0 | 5.0 | 0.00 | 0.00 | 0.00 | 85 | 1016.2 |
| 20260905141553 | 82 | 143 | 0.0 | 6.0 | 0.00 | 0.00 | 0.00 | 85 | 1014.4 |
| 20260905141540 | 82 | 143 | 0.0 | 6.0 | 0.00 | 0.00 | 0.00 | 85 | 1016.2 |
| 20260905140058 | 82 | 157 | 0.0 | 6.0 | 0.00 | 0.00 | 0.00 | 84 | 1014.2 |
| 20260905140036 | 82 | 157 | 1.0 | 4.0 | 0.00 | 0.00 | 0.00 | 84 | 1016.2 |
| 20260905134556 | 82 | 158 | 1.0 | 5.0 | 0.00 | 0.00 | 0.00 | 86 | 1014.2 |
| 20260905134535 | 82 | 158 | 2.0 | 5.0 | 0.00 | 0.00 | 0.00 | 86 | 1015.8 |
| 20260905133052 | 80 | 190 | 2.0 | 7.0 | 0.00 | 0.00 | 0.00 | 88 | 1014.0 |
| 20260905133031 | 80 | 190 | 2.0 | 6.0 | 0.00 | 0.00 | 0.00 | 89 | 1015.7 |
| 20260905131605 | 78 | 0 | 0.0 | 2.0 | 0.00 | 0.00 | 0.00 | 91 | 1013.8 |
| 20260905131529 | 78 | 136 | 0.0 | 2.0 | 0.00 | 0.00 | 0.00 | 92 | 1015.7 |
| 20260905130059 | 78 | 0 | 0.0 | 1.0 | 0.00 | 0.00 | 0.00 | 91 | 1013.8 |
| 20260905130028 | 78 | 136 | 0.0 | 1.0 | 0.00 | 0.00 | 0.00 | 92 | 1015.4 |
| 20260905124554 | 78 | 0 | 0.0 | 3.0 | 0.00 | 0.00 | 0.00 | 91 | 1013.6 |
| 20260905124537 | 78 | 136 | 0.0 | 3.0 | 0.00 | 0.00 | 0.00 | 91 | 1015.2 |
| 20260905123052 | 78 | 0 | 0.0 | 0.0 | 0.00 | 0.00 | 0.00 | 90 | 1013.4 |
| 20260905123026 | 78 | 129 | 0.0 | 0.0 | 0.00 | 0.00 | 0.00 | 91 | 1015.1 |
| 20260905121555 | 78 | 0 | 0.0 | 2.0 | 0.00 | 0.00 | 0.00 | 90 | 1013.3 |
| 20260905121526 | 78 | 105 | 0.0 | 2.0 | 0.00 | 0.00 | 0.00 | 90 | 1014.9 |
| 20260905120113 | 78 | 86 | 1.0 | 4.0 | 0.00 | 0.00 | 0.00 | 90 | 1013.4 |
| 20260905120025 | 78 | 86 | 1.0 | 4.0 | 0.00 | 0.00 | 0.00 | 90 | 1014.9 |
| 20260905114558 | 78 | 121 | 1.0 | 4.0 | 0.00 | 0.00 | 0.00 | 90 | 1013.3 |
| 20260905114526 | 78 | 121 | 1.0 | 4.0 | 0.00 | 0.00 | 0.00 | 91 | 1014.9 |
| 20260905113052 | 78 | 132 | 1.0 | 3.0 | 0.00 | 0.00 | 0.00 | 90 | 1013.1 |
| 20260905113024 | 78 | 132 | 1.0 | 3.0 | 0.00 | 0.00 | 0.00 | 91 | 1014.7 |
| 20260905111608 | 78 | 0 | 0.0 | 3.0 | 0.00 | 0.00 | 0.00 | 90 | 1013.1 |
| 20260905111523 | 78 | 113 | 1.0 | 3.0 | 0.00 | 0.00 | 0.00 | 91 | 1014.7 |
| 20260905110056 | 78 | 0 | 0.0 | 2.0 | 0.00 | 0.00 | 0.00 | 90 | 1012.9 |
| 20260905110022 | 78 | 155 | 0.0 | 2.0 | 0.00 | 0.00 | 0.00 | 91 | 1014.7 |
| 20260905104557 | 78 | 0 | 0.0 | 3.0 | 0.00 | 0.00 | 0.00 | 90 | 1013.0 |
| 20260905104520 | 78 | 155 | 0.0 | 2.0 | 0.00 | 0.00 | 0.00 | 90 | 1014.6 |
| 20260905103054 | 79 | 0 | 0.0 | 2.0 | 0.00 | 0.00 | 0.00 | 89 | 1013.0 |
| 20260905103025 | 79 | 180 | 0.0 | 2.0 | 0.00 | 0.00 | 0.00 | 90 | 1014.7 |
| 20260905101555 | 79 | 134 | 0.0 | 4.0 | 0.00 | 0.00 | 0.00 | 89 | 1012.8 |
| 20260905101519 | 79 | 134 | 1.0 | 3.0 | 0.00 | 0.00 | 0.00 | 89 | 1014.5 |
| 20260905100101 | 79 | 0 | 1.0 | 5.0 | 0.00 | 0.00 | 0.00 | 89 | 1012.9 |
| 20260905100018 | 79 | 153 | 0.0 | 4.0 | 0.00 | 0.00 | 0.00 | 89 | 1014.6 |
| 20260905094554 | 79 | 146 | 1.0 | 5.0 | 0.00 | 0.00 | 0.00 | 88 | 1013.0 |
| 20260905094518 | 79 | 147 | 1.0 | 5.0 | 0.00 | 0.00 | 0.00 | 89 | 1014.7 |
| 20260905093056 | 79 | 164 | 1.0 | 6.0 | 0.00 | 0.00 | 0.00 | 88 | 1012.8 |
| 20260905093017 | 79 | 164 | 1.0 | 5.0 | 0.00 | 0.00 | 0.00 | 89 | 1014.6 |
| 20260905091618 | 79 | 140 | 2.0 | 7.0 | 0.00 | 0.00 | 0.00 | 89 | 1012.7 |
| 20260905091547 | 79 | 144 | 3.0 | 7.0 | 0.00 | 0.00 | 0.00 | 89 | 1014.5 |
| 20260905090106 | 79 | 165 | 1.0 | 5.0 | 0.00 | 0.00 | 0.00 | 88 | 1012.7 |
| 20260905090015 | 79 | 166 | 1.0 | 4.0 | 0.00 | 0.00 | 0.00 | 89 | 1014.4 |
| 20260905084606 | 79 | 141 | 1.0 | 7.0 | 0.00 | 0.00 | 0.00 | 88 | 1012.7 |
| 20260905084513 | 79 | 141 | 1.0 | 5.0 | 0.00 | 0.00 | 0.00 | 89 | 1014.5 |
| 20260905083052 | 80 | 109 | 2.0 | 5.0 | 0.00 | 0.00 | 0.00 | 88 | 1013.0 |
| 20260905083014 | 80 | 128 | 2.0 | 5.0 | 0.00 | 0.00 | 0.00 | 88 | 1014.7 |
| 20260905081552 | 80 | 120 | 1.0 | 3.0 | 0.00 | 0.00 | 0.00 | 87 | 1013.0 |
| 20260905081511 | 80 | 121 | 1.0 | 3.0 | 0.00 | 0.00 | 0.00 | 88 | 1014.7 |
| 20260905080055 | 80 | 133 | 1.0 | 7.0 | 0.00 | 0.00 | 0.00 | 87 | 1013.0 |
| 20260905080009 | 80 | 148 | 2.0 | 6.0 | 0.00 | 0.00 | 0.00 | 87 | 1014.7 |
| 20260905074556 | 80 | 146 | 2.0 | 7.0 | 0.00 | 0.00 | 0.00 | 86 | 1013.0 |
| 20260905074512 | 80 | 131 | 2.0 | 7.0 | 0.00 | 0.00 | 0.00 | 87 | 1014.7 |
| 20260905073053 | 80 | 118 | 2.0 | 7.0 | 0.00 | 0.00 | 0.00 | 86 | 1013.4 |
| 20260905073006 | 80 | 115 | 2.0 | 6.0 | 0.00 | 0.00 | 0.00 | 86 | 1014.9 |
| 20260905071555 | 80 | 173 | 2.0 | 8.0 | 0.00 | 0.00 | 0.00 | 85 | 1013.5 |
| 20260905071505 | 80 | 111 | 3.0 | 8.0 | 0.00 | 0.00 | 0.00 | 86 | 1015.1 |
| 20260905070101 | 81 | 158 | 2.0 | 8.0 | 0.00 | 0.00 | 0.00 | 85 | 1013.5 |
| 20260905070004 | 81 | 131 | 2.0 | 8.0 | 0.00 | 0.00 | 0.00 | 85 | 1015.1 |
| 20260905064556 | 81 | 167 | 3.0 | 9.0 | 0.00 | 0.00 | 0.00 | 84 | 1013.6 |
| 20260905064503 | 81 | 163 | 3.0 | 9.0 | 0.00 | 0.00 | 0.00 | 85 | 1015.1 |
| 20260905063100 | 81 | 155 | 3.0 | 10.0 | 0.00 | 0.00 | 0.00 | 83 | 1013.5 |
| 20260905063001 | 81 | 97 | 3.0 | 9.0 | 0.00 | 0.00 | 0.00 | 84 | 1015.1 |
| 20260905061622 | 81 | 158 | 4.0 | 11.0 | 0.00 | 0.00 | 0.00 | 83 | 1015.1 |
| 20260905061620 | 81 | 111 | 3.0 | 11.0 | 0.00 | 0.00 | 0.00 | 83 | 1013.5 |
| 20260905060116 | 81 | 121 | 5.0 | 12.0 | 0.00 | 0.00 | 0.00 | 82 | 1015.2 |
| 20260905054557 | 82 | 140 | 3.0 | 10.0 | 0.00 | 0.00 | 0.00 | 81 | 1015.1 |
| 20260905054551 | 82 | 148 | 5.0 | 10.0 | 0.00 | 0.00 | 0.00 | 80 | 1013.6 |
| 20260905053059 | 82 | 133 | 3.0 | 10.0 | 0.00 | 0.00 | 0.00 | 79 | 1013.6 |
| 20260905053056 | 82 | 132 | 3.0 | 10.0 | 0.00 | 0.00 | 0.00 | 79 | 1015.2 |
| 20260905051556 | 83 | 119 | 4.0 | 9.0 | 0.00 | 0.00 | 0.00 | 76 | 1013.6 |
| 20260905051552 | 83 | 120 | 4.0 | 9.0 | 0.00 | 0.00 | 0.00 | 77 | 1015.3 |
| 20260905050056 | 83 | 132 | 5.0 | 12.0 | 0.00 | 0.00 | 0.00 | 74 | 1013.5 |
| 20260905050049 | 83 | 136 | 3.0 | 11.0 | 0.00 | 0.00 | 0.00 | 75 | 1015.1 |
| 20260905044553 | 84 | 140 | 3.0 | 9.0 | 0.00 | 0.00 | 0.00 | 72 | 1013.5 |
| 20260905044548 | 84 | 148 | 3.0 | 7.0 | 0.00 | 0.00 | 0.00 | 72 | 1015.1 |
| 20260905043047 | 84 | 174 | 4.0 | 10.0 | 0.00 | 0.00 | 0.00 | 70 | 1015.2 |
| 20260905041601 | 84 | 123 | 6.0 | 11.0 | 0.00 | 0.00 | 0.00 | 68 | 1013.5 |
| 20260905041556 | 84 | 182 | 5.0 | 11.0 | 0.00 | 0.00 | 0.00 | 69 | 1015.2 |
| 20260905040053 | 85 | 148 | 6.0 | 13.0 | 0.00 | 0.00 | 0.00 | 67 | 1013.4 |
| 20260905040046 | 85 | 90 | 6.0 | 11.0 | 0.00 | 0.00 | 0.00 | 68 | 1015.1 |
| 20260905034610 | 85 | 109 | 5.0 | 13.0 | 0.00 | 0.00 | 0.00 | 67 | 1013.4 |
| 20260905034554 | 85 | 146 | 5.0 | 13.0 | 0.00 | 0.00 | 0.00 | 68 | 1015.1 |
| 20260905033105 | 85 | 147 | 5.0 | 13.0 | 0.00 | 0.00 | 0.00 | 68 | 1013.2 |
| 20260905033045 | 85 | 122 | 6.0 | 13.0 | 0.00 | 0.00 | 0.00 | 68 | 1014.9 |
| 20260905031616 | 85 | 107 | 7.0 | 13.0 | 0.00 | 0.00 | 0.00 | 68 | 1012.9 |
| 20260905031545 | 85 | 105 | 6.0 | 13.0 | 0.00 | 0.00 | 0.00 | 68 | 1014.9 |
| 20260905030058 | 85 | 147 | 5.0 | 14.0 | 0.00 | 0.00 | 0.00 | 67 | 1012.9 |
| 20260905030045 | 85 | 98 | 5.0 | 14.0 | 0.00 | 0.00 | 0.00 | 68 | 1014.8 |
| 20260905024600 | 85 | 117 | 4.0 | 12.0 | 0.00 | 0.00 | 0.00 | 67 | 1012.6 |
| 20260905024545 | 85 | 122 | 6.0 | 12.0 | 0.00 | 0.00 | 0.00 | 68 | 1014.5 |
| 20260905023144 | 85 | 111 | 6.0 | 12.0 | 0.00 | 0.00 | 0.00 | 67 | 1014.3 |
| 20260905023055 | 85 | 102 | 6.0 | 12.0 | 0.00 | 0.00 | 0.00 | 66 | 1012.3 |
| 20260905021558 | 85 | 105 | 4.0 | 11.0 | 0.00 | 0.00 | 0.00 | 66 | 1012.2 |
| 20260905021550 | 85 | 112 | 3.0 | 11.0 | 0.00 | 0.00 | 0.00 | 67 | 1014.1 |
| 20260905020058 | 85 | 93 | 4.0 | 11.0 | 0.00 | 0.00 | 0.00 | 67 | 1012.0 |
| 20260905020043 | 85 | 86 | 3.0 | 11.0 | 0.00 | 0.00 | 0.00 | 68 | 1013.8 |
| 20260905014557 | 84 | 54 | 3.0 | 7.0 | 0.00 | 0.00 | 0.00 | 69 | 1011.9 |
| 20260905014542 | 84 | 73 | 3.0 | 7.0 | 0.00 | 0.00 | 0.00 | 69 | 1013.7 |
| 20260905013101 | 85 | 91 | 2.0 | 5.0 | 0.00 | 0.00 | 0.00 | 69 | 1011.8 |
| 20260905013041 | 85 | 90 | 2.0 | 5.0 | 0.00 | 0.00 | 0.00 | 69 | 1013.6 |
| 20260905011601 | 85 | 80 | 2.0 | 4.0 | 0.00 | 0.00 | 0.00 | 68 | 1011.7 |
| 20260905011544 | 85 | 81 | 2.0 | 4.0 | 0.00 | 0.00 | 0.00 | 69 | 1013.3 |
| 20260905010105 | 86 | 71 | 1.0 | 3.0 | 0.00 | 0.00 | 0.00 | 67 | 1011.8 |
| 20260905010040 | 86 | 71 | 1.0 | 3.0 | 0.00 | 0.00 | 0.00 | 68 | 1013.5 |
| 20260905004606 | 86 | 45 | 1.0 | 5.0 | 0.00 | 0.00 | 0.00 | 67 | 1011.7 |
| 20260905004546 | 86 | 45 | 1.0 | 5.0 | 0.00 | 0.00 | 0.00 | 67 | 1013.4 |
| 20260905003104 | 87 | 71 | 2.0 | 4.0 | 0.00 | 0.00 | 0.00 | 66 | 1011.6 |
| 20260905003039 | 87 | 71 | 1.0 | 4.0 | 0.00 | 0.00 | 0.00 | 67 | 1013.3 |
| 20260905001605 | 87 | 0 | 1.0 | 4.0 | 0.00 | 0.00 | 0.00 | 65 | 1011.6 |
| 20260905001549 | 87 | 85 | 1.0 | 3.0 | 0.00 | 0.00 | 0.00 | 66 | 1013.2 |
| 20260905000111 | 88 | 94 | 4.0 | 9.0 | 0.00 | 0.00 | 0.00 | 65 | 1011.3 |
| 20260905000039 | 88 | 94 | 3.0 | 9.0 | 0.00 | 0.00 | 0.00 | 65 | 1013.0 |
| 20260904234556 | 88 | 102 | 4.0 | 9.0 | 0.00 | 0.00 | 0.00 | 65 | 1011.3 |
| 20260904234541 | 88 | 80 | 4.0 | 9.0 | 0.00 | 0.00 | 0.00 | 65 | 1013.0 |
| 20260904233114 | 88 | 82 | 5.0 | 10.0 | 0.00 | 0.00 | 0.00 | 65 | 1011.2 |
| 20260904233043 | 88 | 71 | 5.0 | 10.0 | 0.00 | 0.00 | 0.00 | 65 | 1012.8 |
| 20260904231606 | 88 | 84 | 6.0 | 13.0 | 0.00 | 0.00 | 0.00 | 64 | 1011.0 |
| 20260904231545 | 88 | 92 | 5.0 | 13.0 | 0.00 | 0.00 | 0.00 | 65 | 1012.8 |
| 20260904230105 | 89 | 76 | 5.0 | 10.0 | 0.00 | 0.00 | 0.00 | 65 | 1011.3 |
| 20260904230035 | 89 | 79 | 4.0 | 10.0 | 0.00 | 0.00 | 0.00 | 65 | 1013.0 |
| 20260904224557 | 89 | 26 | 5.0 | 10.0 | 0.00 | 0.00 | 0.00 | 64 | 1011.4 |
| 20260904224545 | 89 | 23 | 4.0 | 10.0 | 0.00 | 0.00 | 0.00 | 65 | 1013.0 |
| 20260904223119 | 89 | 27 | 3.0 | 10.0 | 0.00 | 0.00 | 0.00 | 62 | 1011.6 |
| 20260904223033 | 89 | 37 | 4.0 | 10.0 | 0.00 | 0.00 | 0.00 | 62 | 1013.3 |
| 20260904221558 | 88 | 89 | 5.0 | 10.0 | 0.00 | 0.00 | 0.00 | 64 | 1011.8 |
| 20260904221530 | 88 | 89 | 4.0 | 10.0 | 0.00 | 0.00 | 0.00 | 65 | 1013.4 |
| 20260904220058 | 87 | 94 | 4.0 | 9.0 | 0.00 | 0.00 | 0.00 | 70 | 1012.0 |
| 20260904220030 | 87 | 76 | 3.0 | 9.0 | 0.00 | 0.00 | 0.00 | 70 | 1013.5 |
| 20260904214602 | 86 | 55 | 2.0 | 9.0 | 0.00 | 0.00 | 0.00 | 75 | 1012.1 |
| 20260904214528 | 86 | 51 | 2.0 | 9.0 | 0.00 | 0.00 | 0.00 | 75 | 1013.7 |
| 20260904213055 | 86 | 107 | 3.0 | 7.0 | 0.00 | 0.00 | 0.00 | 78 | 1012.2 |
| 20260904213028 | 86 | 104 | 3.0 | 6.0 | 0.00 | 0.00 | 0.00 | 79 | 1013.9 |
| 20260904211552 | 86 | 99 | 3.0 | 9.0 | 0.00 | 0.00 | 0.00 | 78 | 1012.4 |
| 20260904211525 | 86 | 80 | 2.0 | 9.0 | 0.00 | 0.00 | 0.00 | 79 | 1014.1 |
| 20260904210125 | 86 | 99 | 2.0 | 7.0 | 0.00 | 0.00 | 0.00 | 76 | 1012.4 |
| 20260904210024 | 86 | 103 | 3.0 | 6.0 | 0.00 | 0.00 | 0.00 | 76 | 1014.1 |
| 20260904204601 | 86 | 97 | 2.0 | 7.0 | 0.00 | 0.00 | 0.00 | 76 | 1012.5 |
| 20260904204525 | 86 | 93 | 3.0 | 6.0 | 0.00 | 0.00 | 0.00 | 76 | 1014.4 |
| 20260904203104 | 88 | 96 | 1.0 | 5.0 | 0.00 | 0.00 | 0.00 | 74 | 1012.8 |
| 20260904203023 | 88 | 96 | 1.0 | 5.0 | 0.00 | 0.00 | 0.00 | 75 | 1014.5 |
| 20260904201551 | 89 | 136 | 3.0 | 9.0 | 0.00 | 0.00 | 0.00 | 69 | 1012.8 |
| 20260904201522 | 89 | 111 | 2.0 | 9.0 | 0.00 | 0.00 | 0.00 | 69 | 1014.5 |
| 20260904200055 | 89 | 61 | 4.0 | 11.0 | 0.00 | 0.00 | 0.00 | 67 | 1012.8 |
| 20260904200023 | 89 | 96 | 4.0 | 11.0 | 0.00 | 0.00 | 0.00 | 68 | 1014.5 |
| 20260904194556 | 89 | 98 | 4.0 | 10.0 | 0.00 | 0.00 | 0.00 | 67 | 1012.9 |
| 20260904194521 | 89 | 106 | 3.0 | 10.0 | 0.00 | 0.00 | 0.00 | 68 | 1014.6 |
| 20260904193113 | 89 | 102 | 2.0 | 9.0 | 0.00 | 0.00 | 0.00 | 65 | 1013.0 |
| 20260904193020 | 89 | 90 | 2.0 | 9.0 | 0.00 | 0.00 | 0.00 | 66 | 1014.7 |
| 20260904191557 | 89 | 136 | 3.0 | 8.0 | 0.00 | 0.00 | 0.00 | 65 | 1013.1 |
| 20260904191524 | 89 | 128 | 3.0 | 8.0 | 0.00 | 0.00 | 0.00 | 66 | 1014.7 |